Albany, NY

1:11 PM EST on December 15, 2019 (GMT -0500)
Albany International

Weather History for KALB - August, 2019

Change the Weather History Date:

Friday, August 30, 2019

  Actual Average Record
Temperature  
Mean Temperature 70 °F 68 °F  
Max Temperature 82 °F 78 °F 98 °F (1953)
Min Temperature 57 °F 58 °F 38 °F (1982)
Degree Days  
Heating Degree Days 0 1  
Month to date heating degree days 2 13  
Since 1 June heating degree days 29 70  
Since 1 July heating degree days 2 18  
Cooling Degree Days 5 4  
Month to date cooling degree days 217 174  
Year to date cooling degree days 723 540  
Since 1 June cooling degree days 701 510  
Growing Degree Days 19 (Base 50)    
Moisture  
Dew Point 56 °F    
Average Humidity 64    
Maximum Humidity 86    
Minimum Humidity 42    
Precipitation  
Precipitation 0.00 in 0.10 in 1.37 in (1885)
Month to date precipitation 4.12 3.37  
Year to date precipitation 28.98 26.06  
Sea Level Pressure  
Sea Level Pressure 29.98 in    
Wind  
Wind Speed 7 mph (SW)    
Max Wind Speed 16 mph    
Max Gust Speed 21 mph    
Visibility 10 miles    
Events      
T = Trace of Precipitation, MM = Missing Value Source: NWS Daily Summary

Daily Weather History Graph

Daily Weather History Graph

Search for Another Location

Airport or City:

Astronomy

Aug. 30, 2019 Rise Set
Actual Time 6:17 AM EDT 7:33 PM EDT
Civil Twilight 5:48 AM EDT 8:02 PM EDT
Nautical Twilight 5:13 AM EDT 8:37 PM EDT
Astronomical Twilight 4:36 AM EDT 9:14 PM EDT
Moon 6:13 AM EDT (8/30) 8:08 PM EDT (8/30)
Length of Visible Light 14h 14m
Length of Day
13h 15m
New Moon, 0% of the Moon is Illuminated
Aug 30
New Moon
Sep 5
First Quarter
Sep 14
Full
Sep 21
Last Quarter
Sep 28
New

Hourly Weather History & Observations

Time (EDT) Temp. Heat Index Dew Point Humidity Pressure Visibility Wind Dir Wind Speed Gust Speed Precip Events Conditions
12:51 AM 60.1 °F - 54.0 °F 80% 29.96 in 10.0 mi SSW 3.5 mph - N/A   Clear
1:51 AM 57.9 °F - 53.1 °F 84% 29.96 in 10.0 mi Calm Calm - N/A   Clear
2:51 AM 61.0 °F - 55.0 °F 81% 29.95 in 10.0 mi South 5.8 mph - N/A   Clear
3:51 AM 61.0 °F - 54.0 °F 78% 29.94 in 10.0 mi South 5.8 mph - N/A   Clear
4:51 AM 60.1 °F - 54.0 °F 80% 29.94 in 10.0 mi South 8.1 mph - N/A   Partly Cloudy
5:51 AM 60.1 °F - 54.0 °F 80% 29.96 in 10.0 mi South 6.9 mph - N/A   Clear
6:51 AM 60.1 °F - 55.0 °F 83% 29.96 in 10.0 mi SSE 10.4 mph - N/A   Clear
7:51 AM 62.1 °F - 55.0 °F 78% 29.95 in 10.0 mi South 6.9 mph - N/A   Scattered Clouds
8:51 AM 66.0 °F - 55.9 °F 70% 29.95 in 10.0 mi SSE 9.2 mph - N/A   Partly Cloudy
9:51 AM 70.0 °F - 57.0 °F 63% 29.96 in 10.0 mi SSE 11.5 mph - N/A   Scattered Clouds
10:51 AM 73.9 °F - 59.0 °F 59% 29.96 in 10.0 mi South 8.1 mph - N/A   Scattered Clouds
11:51 AM 75.9 °F - 60.1 °F 58% 29.95 in 10.0 mi South 9.2 mph - N/A   Mostly Cloudy
12:51 PM 77.0 °F - 60.1 °F 56% 29.96 in 10.0 mi South 5.8 mph - N/A   Overcast
1:51 PM 79.0 °F - 61.0 °F 54% 29.97 in 10.0 mi West 6.9 mph - N/A   Mostly Cloudy
2:51 PM 79.0 °F - 59.0 °F 50% 29.97 in 10.0 mi West 6.9 mph - N/A   Mostly Cloudy
3:51 PM 81.0 °F 81.6 °F 60.1 °F 49% 29.97 in 10.0 mi WNW 8.1 mph - N/A   Scattered Clouds
4:51 PM 81.0 °F 80.8 °F 55.9 °F 42% 29.97 in 10.0 mi NW 11.5 mph - N/A   Partly Cloudy
5:51 PM 79.0 °F - 54.0 °F 42% 29.99 in 10.0 mi NW 11.5 mph - N/A   Partly Cloudy
6:51 PM 75.9 °F - 52.0 °F 43% 30.01 in 10.0 mi WNW 9.2 mph - N/A   Partly Cloudy
7:51 PM 71.1 °F - 54.0 °F 55% 30.03 in 10.0 mi West 3.5 mph - N/A   Partly Cloudy
8:51 PM 68.0 °F - 54.0 °F 61% 30.05 in 10.0 mi West 5.8 mph - N/A   Scattered Clouds
9:51 PM 66.0 °F - 54.0 °F 65% 30.09 in 10.0 mi West 4.6 mph - N/A   Scattered Clouds
10:51 PM 66.0 °F - 54.0 °F 65% 30.10 in 10.0 mi West 8.1 mph - N/A   Scattered Clouds
11:51 PM 64.0 °F - 53.1 °F 67% 30.11 in 10.0 mi SSE 4.6 mph - N/A   Mostly Cloudy